Погода в Балдоне

Латвия     56°44′32″N   24°23′34″E
темп.,
°C
ветер,
м/с
пор.,
м/с
влажн.,
%
обл.,
%
осадки,
мм/ч
давл.,
гПа
погр.,
м
16 сентября, чт
чт1600:00+6всв22950 0.0 102016
03:00+5вюв23925 0.0 102045
06:00+4вюв259432 0.0 1020106
09:00+7вюв3678100 0.0 1020224
12:00+12вюв466196 0.0 1020608
15:00+15вюв4552100 0.0 10181009
18:00+13вюв3658100 0.0 1017758
21:00+11в41064100 0.0 1016435
17 сентября, пт
пт1700:00+10в41171100 0.1 1016410
03:00+9в41169100 0.1 1015430
06:00+9в41167100 0.0 1015472
09:00+9в5126695 0.0 1015544
12:00+12в5105692 0.0 1016757
15:00+15в5748100 0.0 10161252
18:00+13в5852100 0.0 10161096
21:00+9всв41262100 0.0 1018679
18 сентября, сб
сб1800:00+8всв41267100 0.0 1019605
03:00+7всв41271100 0.0 1019489
06:00+6всв41271100 0.0 1020497
09:00+7всв4136396 0.0 1020633
12:00+11в6104453 0.0 10201085
15:00+14всв6939100 0.0 10201436
18:00+12всв5104815 0.0 10201207
21:00+8св412611 0.0 1021708
19 сентября, вс
вс1900:00+7св412700 0.0 1021513
03:00+5св412800 0.0 1021452
06:00+4св412850 0.0 1021458
09:00+6св413720 0.0 1021568
12:00+12всв59480 0.0 10211062
15:00+14всв58415 0.0 10211522
18:00+12всв48515 0.0 10211514
21:00+8св311695 0.0 1023413
20 сентября, пн
пн2000:00+6св4117248 0.0 1023594
03:00+4св311795 0.0 1024457
06:00+3св4118312 0.0 1024432
09:00+5св4117221 0.0 1025563
12:00+10всв58475 0.0 10251132
15:00+13всв57405 0.0 10241550
18:00+12св47495 0.0 10241391
21:00+6ссв310685 0.0 1025327